sat.trackr.live / text

‹ back to catalog

CENTISPACE-2 S7

NORAD 68356 · 2026-060G

PAYLOAD ACTIVE UNKNOWN

§ Identity

Operator
Country
PRC
Launch date
2026-03-22
Launch site
YSLA
Launch vehicle
Mass (kg)
RCS (m²)

External: N2YO · Heavens-Above · Gunter

§ Orbital elements

Epoch: 2026-05-20T14:46:52.043232Z

Period
97.69 min
Inclination
54.9855°
Eccentricity
0.0013920
Mean motion
14.73998729 rev/d
Perigee alt
638.6 km
Apogee alt
658.1 km
Semi-major
7,026.5 km
B*
1.4484e-5
RAAN
148.3779°
Arg perigee
78.7105°
Mean anomaly
281.5457°
Rev number
870

§ Raw data

CENTISPACE-2 S71 68356U 26060G   26140.61588013 -.00000112  00000+0  14484-4 0  99962 68356  54.9855 148.3779 0013920  78.7105 281.5457 14.73998729  8704

JSON: /api/v1/satellites/68356 · /tle

For live sub-satellite position, see the globe view (requires WebGL).

§ Visibility from observer

Set your observer location to see the next 7 days of passes ≥ 10°. The values pass through the URL so the page stays shareable.

No JS? Fill the form by hand. The geolocation button needs JavaScript.